Powrót do katalogu

FENGYUN 1C DEB

AktywnySSO
NORAD 30573·DEBRIS·🇨🇳 China

Wystrzelony May 10, 1999 z Taiyuan Satellite Launch Center

Loading…

Następne Przeloty (najbliższe 24 godziny)

TLE

ŚwieżeSource: Space-Track

Epoka: Sep 14, 2026, 15:16 UTC

1 30573U 99025ALP 26257.63669608  .00001822  00000-0  92352-3 0  9996
2 30573  99.2084 309.2728 0087678 217.1977 297.2968 14.15411149   995

Śledź FENGYUN 1C DEB w czasie rzeczywistym z AllMySat

Download on the App Store